Location: St. Louis
(38.6270°N, 90.1994°W)
Time: 23:51:33
(UTC-06:00)

NUDT-PHONESAT - Visible Passes

Search period start: 27 January 2022 00:00
Search period end: 06 February 2022 00:00
Orbit: 468 x 486 km, 97.4° (Epoch: 27 January)

Date Brightness Start Highest point End Pass type
(mag) Time Alt. Az. Time Alt. Az. Time Alt. Az.
27 Jan ? 19:00:55 10° SW 19:03:19 17° W 19:05:43 10° NW visible
28 Jan ? 06:26:53 10° NNE 06:30:08 34° E 06:33:22 10° SSE visible
28 Jan ? 18:33:23 10° SSW 18:36:40 38° W 18:39:58 10° NNW visible
29 Jan ? 06:01:17 10° NE 06:03:28 15° E 06:05:38 10° SE visible
29 Jan ? 18:06:36 10° SSE 18:10:06 85° E 18:13:37 10° N visible
30 Jan ? 19:15:47 10° WSW 19:17:02 12° W 19:18:17 10° WNW visible
31 Jan ? 18:47:20 10° SSW 18:50:17 25° W 18:53:14 10° NW visible
01 Feb ? 06:14:12 10° NE 06:17:05 23° E 06:19:56 10° SSE visible
01 Feb ? 18:20:09 10° S 18:23:36 60° W 18:27:05 10° NNW visible
02 Feb ? 05:49:37 10° E 05:50:17 10° E 05:50:58 10° ESE visible
02 Feb ? 17:53:35 10° SSE 17:57:00 53° ENE 18:00:26 10° N visible
03 Feb ? 19:01:21 10° SW 19:03:44 17° W 19:06:07 10° NW visible
04 Feb ? 06:27:13 10° NNE 06:30:30 34° E 06:33:45 10° SSE visible
04 Feb ? 18:33:40 10° SSW 18:36:56 38° W 18:40:15 10° NNW visible
05 Feb ? 06:01:29 10° NE 06:03:41 16° E 06:05:53 10° SE visible
05 Feb ? 18:06:45 10° SSE 18:10:14 85° ENE 18:13:46 10° N visible
